Weather History for De Kooy, Netherlands

Change the Weather History Date:

Tuesday, November 13, 2012

  Actual Average Record
Temperature  
Mean Temperature 48 °F -  
Max Temperature 52 °F 46 °F 57 °F (2006)
Min Temperature 44 °F 38 °F 32 °F (1997)
Degree Days  
Heating Degree Days 17    
Moisture  
Dew Point 49 °F    
Average Humidity 96    
Maximum Humidity 100    
Minimum Humidity 93    
Precipitation  
Precipitation 0.00 in 0.11 in - ()
Sea Level Pressure  
Sea Level Pressure 30.32 in    
Wind  
Wind Speed 15 mph ()    
Max Wind Speed 21 mph    
Max Gust Speed -    
Visibility 2.0 miles    
Events Fog , Rain    
Averages and records for this station are not official NWS values.
T = Trace of Precipitation, MM = Missing Value Source: Averaged Metar Reports

Daily Weather History Graph

Daily Weather History Graph

Search for Another Location

Airport:

Trip Planner

Search our weather history database for the weather conditions in past years. The results will help you decide how hot, cold, wet, or windy it might be!

Date:

Astronomy

Nov. 13, 2012 Rise Set
Actual Time 8:01 AM CET 4:48 PM CET
Civil Twilight 7:22 AM CET 5:26 PM CET
Nautical Twilight 6:40 AM CET 6:08 PM CET
Astronomical Twilight 6:00 AM CET 6:49 PM CET
Moon 7:20 AM CET (11/13) 4:26 PM CET (11/13)
Length of Visible Light 10h 03m
Length of Day
8h 47m
Waning Crescent, 0% of the Moon is Illuminated
Nov 13
Waning Crescent
Nov 13
New
Nov 20
First Quarter
Nov 28
Full
Dec 6
Last Quarter

Hourly Weather History & Observations

Time (CET) Temp. Windchill Dew Point Humidity Pressure Visibility Wind Dir Wind Speed Gust Speed Precip Events Conditions
12:25 AM 46.4 °F 39.8 °F 44.6 °F 93% 30.21 in 2.5 mi South 16.1 mph - N/A   Overcast
12:39 AM 46.4 °F 39.8 °F 44.6 °F 93% 30.21 in 2.5 mi South 16.1 mph - N/A   Overcast
12:48 AM 46.4 °F 40.1 °F 44.6 °F 93% 30.24 in 2.2 mi South 15.0 mph - N/A   Overcast
12:55 AM 46.4 °F 40.1 °F 44.6 °F 93% 30.24 in - SSW 15.0 mph - N/A   Overcast
1:00 AM 46 °F - 45 °F 96% 30.24 in 2 mi SSW 15.7 mph - - Rain Light Rain
1:25 AM 46.4 °F 39.5 °F 44.6 °F 93% 30.21 in 1.8 mi SSW 17.3 mph - N/A   Heavy Drizzle
1:41 AM 46.4 °F 39.5 °F 46.4 °F 100% 30.24 in 3.1 mi South 17.3 mph - N/A   Light Drizzle
1:55 AM 46.4 °F 39.8 °F 46.4 °F 100% 30.24 in 3.7 mi South 16.1 mph - N/A   Overcast
2:09 AM 46.4 °F 39.5 °F 46.4 °F 100% 30.24 in - SSW 17.3 mph - N/A   Overcast
2:25 AM 48.2 °F - 46.4 °F 93% 30.24 in - SSW 18.4 mph - N/A   Overcast
2:34 AM 48.2 °F - 46.4 °F 93% 30.24 in - SSW 19.6 mph - N/A   Overcast
2:55 AM 48.2 °F - 46.4 °F 93% 30.24 in - SSW 18.4 mph - N/A   Overcast
3:25 AM 48.2 °F - 46.4 °F 93% 30.24 in 1.6 mi SSW 19.6 mph - N/A Rain Light Rain
3:55 AM 48.2 °F - 46.4 °F 93% 30.24 in 1.7 mi SSW 19.6 mph - N/A   Overcast
4:00 AM 48 °F - 47 °F 95% 30.25 in 1 mi SSW 20.1 mph - - Rain Rain
4:25 AM 48.2 °F - 46.4 °F 93% 30.24 in 1.6 mi SSW 19.6 mph - N/A   Overcast
4:55 AM 48.2 °F - 48.2 °F 100% 30.24 in 1.5 mi SSW 19.6 mph - N/A   Overcast
5:07 AM 48.2 °F - 48.2 °F 100% 30.24 in 1.6 mi SSW 19.6 mph - N/A   Overcast
5:11 AM 48.2 °F - 48.2 °F 100% 30.24 in 1.6 mi SSW 18.4 mph - N/A   Overcast
5:25 AM 48.2 °F - 48.2 °F 100% 30.24 in 1.6 mi SSW 19.6 mph - N/A   Overcast
5:49 AM 48.2 °F - 48.2 °F 100% 30.24 in - SSW 18.4 mph - N/A   Overcast
5:55 AM 48.2 °F - 48.2 °F 100% 30.24 in - SSW 17.3 mph - N/A   Overcast
6:10 AM 48.2 °F - 48.2 °F 100% 30.24 in - SSW 18.4 mph - N/A   Overcast
6:25 AM 48.2 °F - 48.2 °F 100% 30.24 in 2.8 mi SSW 18.4 mph - N/A   Overcast
6:38 AM 48.2 °F - 48.2 °F 100% 30.27 in - SSW 18.4 mph - N/A   Overcast
6:55 AM 50.0 °F - 48.2 °F 94% 30.27 in 2.5 mi SSW 18.4 mph - N/A   Overcast
7:00 AM 49 °F - 48 °F 97% 30.28 in 2 mi SSW 17.9 mph - -   Mist
7:25 AM 50.0 °F - 48.2 °F 94% 30.27 in - SSW 15.0 mph - N/A   Overcast
7:37 AM 50.0 °F - 48.2 °F 94% 30.27 in 1.8 mi SSW 18.4 mph - N/A   Overcast
7:41 AM 50.0 °F - 48.2 °F 94% 30.27 in 1.7 mi SSW 18.4 mph - N/A   Overcast
7:45 AM 50.0 °F - 48.2 °F 94% 30.27 in 1.6 mi SSW 18.4 mph - N/A   Overcast
7:55 AM 50.0 °F - 48.2 °F 94% 30.27 in 1.3 mi SSW 18.4 mph - N/A   Overcast
7:59 AM 50.0 °F - 48.2 °F 94% 30.27 in 0.9 mi SSW 17.3 mph - N/A   Overcast
8:05 AM 50.0 °F - 48.2 °F 94% 30.30 in 0.9 mi SSW 17.3 mph - N/A   Overcast
8:25 AM 50.0 °F - 48.2 °F 94% 30.30 in 0.6 mi SSW 16.1 mph - N/A Fog Fog
8:55 AM 50.0 °F - 50.0 °F 100% 30.30 in 0.6 mi SSW 18.4 mph - N/A Fog Fog
9:05 AM 50.0 °F - 50.0 °F 100% 30.30 in - SSW 18.4 mph - N/A Fog Fog
9:25 AM 50.0 °F - 50.0 °F 100% 30.30 in 0.5 mi SSW 17.3 mph - N/A Fog Fog
9:55 AM 50.0 °F - 50.0 °F 100% 30.30 in 0.5 mi SSW 17.3 mph - N/A Fog Fog
10:00 AM 50 °F - 50 °F 99% 30.33 in 0 mi SSW 17.9 mph - - Fog Fog
10:25 AM 50.0 °F - 50.0 °F 100% 30.33 in 0.6 mi SSW 17.3 mph - N/A Fog Fog
10:41 AM 51.8 °F - 50.0 °F 94% 30.33 in 1.2 mi SSW 16.1 mph - N/A   Overcast
10:45 AM 51.8 °F - 50.0 °F 94% 30.33 in 1.3 mi SSW 16.1 mph - N/A   Overcast
10:49 AM 50.0 °F - 50.0 °F 100% 30.33 in 1.6 mi SSW 16.1 mph - N/A   Overcast
10:55 AM 51.8 °F - 50.0 °F 94% 30.33 in 1.6 mi SSW 16.1 mph - N/A   Overcast
11:00 AM 51.8 °F - 50.0 °F 94% 30.33 in 1.8 mi SSW 17.3 mph - N/A   Overcast
11:10 AM 51.8 °F - 51.8 °F 100% 30.33 in - SSW 18.4 mph - N/A   Overcast
11:25 AM 51.8 °F - 51.8 °F 100% 30.33 in - SSW 18.4 mph - N/A   Overcast
11:49 AM 51.8 °F - 51.8 °F 100% 30.33 in 3.1 mi SSW 19.6 mph - N/A   Overcast
11:55 AM 51.8 °F - 51.8 °F 100% 30.33 in 3.1 mi SSW 19.6 mph - N/A   Overcast
12:07 PM 51.8 °F - 51.8 °F 100% 30.33 in 3.1 mi SSW 20.7 mph - N/A   Overcast
12:12 PM 51.8 °F - 51.8 °F 100% 30.33 in - SSW 19.6 mph - N/A   Overcast
12:25 PM 51.8 °F - 51.8 °F 100% 30.33 in 3.1 mi SSW 20.7 mph - N/A   Overcast
12:55 PM 51.8 °F - 51.8 °F 100% 30.33 in 3.1 mi SSW 19.6 mph - N/A   Overcast
1:00 PM 52 °F - 51 °F 95% 30.34 in 3 mi SSW 20.1 mph - -   Mist
1:06 PM 51.8 °F - 51.8 °F 100% 30.33 in 3.1 mi SSW 19.6 mph - N/A   Overcast
1:14 PM 51.8 °F - 51.8 °F 100% 30.33 in - SSW 19.6 mph - N/A   Overcast
1:25 PM 51.8 °F - 51.8 °F 100% 30.33 in - SSW 19.6 mph - N/A   Overcast
1:55 PM 51.8 °F - 51.8 °F 100% 30.33 in 2.8 mi SSW 19.6 mph - N/A   Overcast
2:25 PM 51.8 °F - 51.8 °F 100% 30.33 in - SSW 19.6 mph - N/A   Overcast
2:27 PM 51.8 °F - 51.8 °F 100% 30.33 in - SSW 19.6 mph - N/A   Overcast
2:55 PM 51.8 °F - 51.8 °F 100% 30.33 in - SSW 19.6 mph - N/A   Overcast
3:25 PM 51.8 °F - 51.8 °F 100% 30.33 in - SSW 16.1 mph - N/A   Overcast
3:55 PM 51.8 °F - 51.8 °F 100% 30.33 in 1.8 mi SW 16.1 mph - N/A   Overcast
4:00 PM 52 °F - 51 °F 95% 30.36 in 2 mi SW 15.7 mph - -   Mist
4:25 PM 51.8 °F - 51.8 °F 100% 30.33 in - SW 15.0 mph - N/A   Overcast
4:45 PM 51.8 °F - 51.8 °F 100% 30.36 in 1.8 mi SW 16.1 mph - N/A   Overcast
4:55 PM 51.8 °F - 50.0 °F 94% 30.36 in 1.8 mi SW 15.0 mph - N/A   Overcast
5:25 PM 51.8 °F - 50.0 °F 94% 30.36 in 1.9 mi SW 15.0 mph - N/A   Overcast
5:47 PM 51.8 °F - 51.8 °F 100% 30.36 in 2.8 mi SW 13.8 mph - N/A   Overcast
5:55 PM 51.8 °F - 51.8 °F 100% 30.36 in - SW 13.8 mph - N/A   Overcast
6:03 PM 51.8 °F - 51.8 °F 100% 30.36 in 3.1 mi SW 13.8 mph - N/A   Overcast
6:06 PM 51.8 °F - 51.8 °F 100% 30.36 in - SW 12.7 mph - N/A   Overcast
6:11 PM 51.8 °F - 50.0 °F 94% 30.36 in 2.8 mi SW 12.7 mph - N/A   Overcast
6:12 PM 51.8 °F - 50.0 °F 94% 30.36 in 2.8 mi SW 12.7 mph - N/A   Mostly Cloudy
6:13 PM 51.8 °F - 50.0 °F 94% 30.36 in 2.8 mi SW 12.7 mph - N/A   Mostly Cloudy
6:25 PM 51.8 °F - 50.0 °F 94% 30.36 in 2.8 mi SW 12.7 mph - N/A   Mostly Cloudy
6:36 PM 51.8 °F - 50.0 °F 94% 30.36 in - SW 12.7 mph - N/A   Overcast
6:40 PM 51.8 °F - 50.0 °F 94% 30.36 in - SW 12.7 mph - N/A   Overcast
6:47 PM 51.8 °F - 50.0 °F 94% 30.36 in - SSW 11.5 mph - N/A   Overcast
6:55 PM 51.8 °F - 50.0 °F 94% 30.36 in - SSW 11.5 mph - N/A   Overcast
7:00 PM 52 °F - 51 °F 93% 30.39 in 2 mi SSW 13.4 mph - -   Mist
7:05 PM 51.8 °F - 50.0 °F 94% 30.39 in 2.2 mi SSW 12.7 mph - N/A   Overcast
7:25 PM 51.8 °F - 50.0 °F 94% 30.39 in 1.9 mi SSW 12.7 mph - N/A   Overcast
7:55 PM 51.8 °F - 50.0 °F 94% 30.39 in - SSW 13.8 mph - N/A   Overcast
8:05 PM 51.8 °F - 50.0 °F 94% 30.39 in - SSW 12.7 mph - N/A   Overcast
8:11 PM 51.8 °F - 50.0 °F 94% 30.39 in - SSW 12.7 mph - N/A   Overcast
8:25 PM 51.8 °F - 50.0 °F 94% 30.39 in - South 12.7 mph - N/A   Overcast
8:50 PM 51.8 °F - 50.0 °F 94% 30.39 in - South 12.7 mph - N/A   Overcast
8:55 PM 51.8 °F - 50.0 °F 94% 30.39 in - South 12.7 mph - N/A   Overcast
8:59 PM 51.8 °F - 50.0 °F 94% 30.39 in - South 10.4 mph - N/A   Overcast
9:25 PM 50.0 °F - 48.2 °F 94% 30.39 in - South 11.5 mph - N/A   Overcast
9:55 PM 50.0 °F - 48.2 °F 94% 30.39 in - South 8.1 mph - N/A   Overcast
10:00 PM 49 °F - 48 °F 96% 30.41 in 2 mi SSW 6.7 mph - -   Mist
10:25 PM 50.0 °F - 48.2 °F 94% 30.39 in - SSW 5.8 mph - N/A   Overcast
10:27 PM 50.0 °F - 48.2 °F 94% 30.39 in - SSW 5.8 mph - N/A   Overcast
10:32 PM 50.0 °F - 48.2 °F 94% 30.39 in 2.2 mi SSW 5.8 mph - N/A   Overcast
10:36 PM 50.0 °F - 48.2 °F 94% 30.39 in - SSW 5.8 mph - N/A   Overcast
10:40 PM 50.0 °F - 48.2 °F 94% 30.39 in 2.2 mi SSW 5.8 mph - N/A   Overcast
10:55 PM 50.0 °F - 48.2 °F 94% 30.39 in - SSW 4.6 mph - N/A   Overcast
11:02 PM 50.0 °F - 48.2 °F 94% 30.39 in - South 5.8 mph - N/A   Overcast
11:06 PM 50.0 °F - 48.2 °F 94% 30.39 in - South 5.8 mph - N/A   Overcast
11:25 PM 50.0 °F - 48.2 °F 94% 30.39 in - South 6.9 mph - N/A   Overcast
11:30 PM 50.0 °F - 48.2 °F 94% 30.39 in - South 6.9 mph - N/A   Overcast
11:44 PM 50.0 °F - 48.2 °F 94% 30.39 in - SSW 5.8 mph - N/A   Overcast
11:55 PM 50.0 °F - 48.2 °F 94% 30.39 in 2.5 mi South 5.8 mph - N/A   Overcast